Regional Weather Roundup
Issued by NWS

Current Version | Previous Version | Text Only | Print | Product List | Glossary On
Versions: 1 2 3 4 5 6 7 8 9 10 11 12 13 14 15 16 17 18 19 20 21 22 23 24 25 26 27 28 29 30 31 32 33 34 35 36 37 38 39 40 41 42 43 44 45 46 47 48 49 50
000
ASUS44 KLIX 230910
RWRLA
LOUISIANA WEATHER ROUNDUP
NATIONAL WEATHER SERVICE NEW ORLEANS LA
400 AM CDT THU OCT 23 2014

NOTE: "FAIR" INDICATES FEW OR NO CLOUDS BELOW 12,000 FEET WITH NO
      SIGNIFICANT WEATHER AND/OR OBSTRUCTIONS TO VISIBILITY.
      SKY/WX - SKY CONDITION AND SIGNIFICANT WEATHER.
      TMP - AIR TEMPERATURE.    DP   - DEWPOINT TEMPERATURE.
      RH  - RELATIVE HUMIDITY.  PRES - PRESSURE.
      HX  - HEAT INDEX.         WCI  - WIND CHILL INDEX.

*  THESE STATIONS ARE NOT NWS OR FAA STATIONS AND ARE NOT UNDER
   NWS QUALITY CONTROL.

LAZ040-048-061>063-065-066-069-231000-
SOUTHEAST LOUISIANA

CITY           SKY/WX    TMP DP  RH WIND       PRES   REMARKS
N.O. AUDUBON   NOT AVBL
N.O. INTL ARPT CLEAR     64  49  57 E12       30.05F
N.O. LAKEFRONT LGT RAIN  65  49  56 E22       30.06S
N.O. DOWNTOWN* FAIR      63  45  51 NE6       30.07S
SLIDELL        CLEAR     49  45  86 N6        30.07S
BATON ROUGE    CLEAR     52  48  86 NE5       30.08F
BOOTHVILLE     CLEAR     70  55  59 NE9       30.03S
BELLE CHASSE   CLEAR     59  51  75 NE6       30.06R
BOGALUSA*        N/A     46  43  88 CALM      30.10S
NEW ROADS*     FAIR      55  47  75 NE6       30.08F
GONZALES*      FAIR      55  52  89 CALM      30.07F
HAMMOND*       CLEAR     54  46  76 CALM      30.09F
HOUMA*         CLEAR     55  51  89 N6        30.05S
PORT FOURCHON* SUNNY     70  57  64 NE12      30.06S

$$

LAZ041-044-053-054-231000-
SOUTHWEST LOUISIANA

CITY           SKY/WX    TMP DP  RH WIND       PRES   REMARKS
LAKE CHARLES   CLEAR     56  51  84 NE8       30.07F
LAFAYETTE      CLEAR     56  53  90 NE5       30.07F
PATTERSON      CLEAR     55  54  94 CALM      30.08S
SALT POINT       N/A     60  56  86 CALM      30.05S
NEW IBERIA     CLEAR     58  52  80 NE8       30.07F
CHENAULT AIRPK CLEAR     56  51  83 NE6       30.07F

$$

LAZ027-028-231000-
CENTRAL LOUISIANA

CITY           SKY/WX    TMP DP  RH WIND       PRES   REMARKS
FORT POLK      MOCLDY    56  49  76 NE6       30.10S
ALEXANDRIA INT CLEAR     52  48  86 CALM      30.09F
ALEXANDRIA     CLEAR     47  46  97 CALM      30.11S

$$

LAZ001-002-231000-
NORTHWEST LOUISIANA

CITY           SKY/WX    TMP DP  RH WIND       PRES   REMARKS
SHREVEPORT     CLOUDY    57  49  74 SE5       30.12S
BARKSDALE AFB  CLOUDY    56  47  71 SE5       30.13S
DTN SHREVEPORT CLOUDY    56  48  74 E3        30.13S

$$

LAZ014-016-231000-
NORTHEAST LOUISIANA

CITY           SKY/WX    TMP DP  RH WIND       PRES   REMARKS
MONROE         PTCLDY    49  46  90 N3        30.15S
TALLULAH       CLEAR     46  45  96 N3        30.12F

$$




USA.gov is the U.S. government's official web portal to all federal, state and local government web resources and services.